Location: Ab? ar R?sh Ba?r?
(24.1861°N, 32.8847°E)
Time: 22:24:12
(UTC+00:00)

YAOGAN 1 - Pass Details

Date: 24 October 2021
Orbit: 618 x 620 km, 97.9° (Epoch: 04 December)

Event Time Altitude Azimuth Distance (km) Brightness Sun altitude
Rises 16:59:25 0° 173° (S) 2,879 6.0 -24.5°
Reaches altitude 10° 17:01:37 10° 176° (S) 1,976 5.1 -25.0°
Maximum altitude 17:05:52 66° 259° (WSW) 677 2.8 -26.0°
Drops below altitude 10° 17:10:10 10° 342° (NNW) 1,985 5.3 -27.0°
Sets 17:12:23 0° 345° (NNW) 2,894 6.2 -27.5°
